LEMUR-2-GUSTAVO (43885 NORAD) Tracking and Keplerian Element Data

This shows tracking and keplerian element data for the satellite.

Feedback or suggestion? Click here.




ElementValue
Catalog43885
NameLEMUR-2-GUSTAVO
Epoch Orbit245
Epoch Day25.90161672
Epoch Year2019
RAAN295.9616
Inclination97.7293
Eccentricity0.001249
Argument of Perigee137.8935
Mean Anonmoly222.3248
Mean Motion14.96473231
Decay Rate8.06E-06
L11 43885U 18111K 19025.90161672 .00000806 00000-0 75990-4 0 9997
L22 43885 97.7293 295.9616 0012490 137.8935 222.3248 14.96473231 2451

Live tracking and technical data element details for LEMUR-2-GUSTAVO (NORAD 43885). LEMUR-2-GUSTAVO can be tracked NOW for your location showing map with azimuth and elevation plus other details from your city location.

Track the satellite on the map from your city or location and see movement details for azimuth, elevation, latitude, longitude, range, height, and movement on the map or in text.







IsCatalogInMostPopularTable: catalog: 43885, numindb: 71
Update: records affected: 1



GetName: 43885 LEMUR-2-GUSTAVO

Hit Count: updated at: Wed, 17 Jul 2019 08:19:21 GMT